Redmond, OR

12:52 PM PDT on September 29, 2016 (GMT -0700)
Roberts Field Airport

Weather History for KRDM - February, 2013

Change the Weather History Date:

Friday, February 8, 2013

  Actual Average Record
Temperature  
Mean Temperature 28 °F 34 °F  
Max Temperature 41 °F 45 °F 67 °F (2016)
Min Temperature 14 °F 24 °F -9 °F (1989)
Degree Days  
Heating Degree Days 37 30  
Month to date heating degree days 226 247  
Since 1 July heating degree days 3871 4087  
Cooling Degree Days 0 0  
Month to date cooling degree days 0 0  
Year to date cooling degree days 0 0  
Moisture  
Dew Point 18 °F    
Average Humidity 65    
Maximum Humidity 92    
Minimum Humidity 38    
Precipitation  
Precipitation 0.00 in 0.02 in 0.60 in (1999)
Month to date precipitation T 0.20  
Year to date precipitation 0.41 1.17  
Sea Level Pressure  
Sea Level Pressure 30.16 in    
Wind  
Wind Speed 4 mph (NNW)    
Max Wind Speed 15 mph    
Max Gust Speed 18 mph    
Visibility 10 miles    
Events      
T = Trace of Precipitation, MM = Missing Value Source: NWS Daily Summary

Daily Weather History Graph

Daily Weather History Graph

Search for Another Location

Airport or City:

Trip Planner

Search our weather history database for the weather conditions in past years. The results will help you decide how hot, cold, wet, or windy it might be!

Date:

Astronomy

Feb. 08, 2013 Rise Set
Actual Time 7:13 AM PST 5:24 PM PST
Civil Twilight 6:43 AM PST 5:54 PM PST
Nautical Twilight 6:09 AM PST 6:29 PM PST
Astronomical Twilight 5:35 AM PST 7:02 PM PST
Moon 5:47 AM PST (2/8) 4:03 PM PST (2/8)
Length of Visible Light 11h 11m
Length of Day
10h 11m
Waning Crescent, 3% of the Moon is Illuminated
Feb 8
Waning Crescent
Feb 9
New
Feb 17
First Quarter
Feb 25
Full
Mar 4
Last Quarter

Hourly Weather History & Observations

Time (PST) Temp. Windchill Dew Point Humidity Pressure Visibility Wind Dir Wind Speed Gust Speed Precip Events Conditions
12:56 AM 19.0 °F - 17.1 °F 92% 30.09 in 10.0 mi Calm Calm - N/A   Clear
1:56 AM 19.0 °F - 16.0 °F 88% 30.10 in 10.0 mi Calm Calm - N/A   Clear
2:56 AM 18.0 °F - 15.1 °F 88% 30.11 in 10.0 mi Calm Calm - N/A   Clear
3:56 AM 17.1 °F - 14.0 °F 88% 30.12 in 10.0 mi Calm Calm - N/A   Clear
4:56 AM 18.0 °F - 15.1 °F 88% 30.13 in 10.0 mi Calm Calm - N/A   Clear
5:56 AM 17.1 °F - 14.0 °F 88% 30.16 in 10.0 mi Calm Calm - N/A   Clear
6:56 AM 16.0 °F - 12.9 °F 88% 30.17 in 10.0 mi Calm Calm - N/A   Clear
7:56 AM 18.0 °F - 14.0 °F 84% 30.19 in 10.0 mi Calm Calm - N/A   Clear
8:56 AM 26.1 °F - 23.0 °F 88% 30.19 in 10.0 mi Calm Calm - N/A   Clear
9:56 AM 30.0 °F 26.5 °F 23.0 °F 75% 30.18 in 10.0 mi WNW 3.5 mph - N/A   Clear
10:56 AM 34.0 °F - 21.9 °F 61% 30.18 in 10.0 mi Calm Calm - N/A   Clear
11:56 AM 37.0 °F 31.0 °F 21.9 °F 54% 30.16 in 10.0 mi NNW 8.1 mph - N/A   Clear
12:56 PM 39.9 °F 32.5 °F 19.9 °F 45% 30.14 in 10.0 mi NNW 12.7 mph 18.4 mph N/A   Clear
1:56 PM 39.9 °F 33.9 °F 19.0 °F 43% 30.14 in 10.0 mi NW 9.2 mph - N/A   Clear
2:56 PM 41.0 °F 33.9 °F 19.0 °F 41% 30.14 in 10.0 mi NNW 12.7 mph - N/A   Clear
3:56 PM 41.0 °F 34.7 °F 18.0 °F 40% 30.14 in 10.0 mi North 10.4 mph - N/A   Clear
4:56 PM 37.9 °F 32.7 °F 18.0 °F 45% 30.15 in 10.0 mi NNE 6.9 mph - N/A   Clear
5:56 PM 32.0 °F 26.4 °F 19.0 °F 59% 30.17 in 10.0 mi North 5.8 mph - N/A   Clear
6:56 PM 30.0 °F 24.1 °F 19.0 °F 64% 30.18 in 10.0 mi NW 5.8 mph - N/A   Clear
7:56 PM 30.0 °F 24.1 °F 19.0 °F 64% 30.19 in 10.0 mi NW 5.8 mph - N/A   Clear
8:56 PM 28.0 °F 24.2 °F 18.0 °F 66% 30.17 in 10.0 mi NNW 3.5 mph - N/A   Clear
9:56 PM 27.0 °F 21.6 °F 18.0 °F 69% 30.18 in 10.0 mi NNW 4.6 mph - N/A   Clear
10:56 PM 21.9 °F - 16.0 °F 78% 30.19 in 10.0 mi Calm Calm - N/A   Clear
11:56 PM 23.0 °F 14.7 °F 17.1 °F 78% 30.19 in 10.0 mi WNW 6.9 mph - N/A   Clear